sat.trackr.live / text

‹ back to catalog

STARLINK-31184

NORAD 58793 · 2024-012G

PAYLOAD ACTIVE UNKNOWN

§ Identity

Operator
Country
US
Launch date
2024-01-15
Launch site
AFETR
Launch vehicle
Mass (kg)
RCS (m²)

Purposes: comms

External: N2YO · Heavens-Above · Gunter

§ Orbital elements

Epoch: 2026-05-25T03:49:02.019360Z

Period
94.27 min
Inclination
43.0037°
Eccentricity
0.0000801
Mean motion
15.27572061 rev/d
Perigee alt
482.5 km
Apogee alt
483.6 km
Semi-major
6,861.2 km
B*
5.1309e-5
RAAN
93.1664°
Arg perigee
212.3781°
Mean anomaly
147.7022°
Rev number
13,293

§ Raw data

STARLINK-311841 58793U 24012G   26145.15905115  .00001150  00000+0  51309-4 0  99942 58793  43.0037  93.1664 0000801 212.3781 147.7022 15.27572061132930

JSON: /api/v1/satellites/58793 · /tle

For live sub-satellite position, see the globe view (requires WebGL).

§ Visibility from observer

Set your observer location to see the next 7 days of passes ≥ 10°. The values pass through the URL so the page stays shareable.

No JS? Fill the form by hand. The geolocation button needs JavaScript.